THORAD AGENA D DEB

Satellite information

Favourite Embed

Satellite Type and Status

DEBRISIN ORBIT

Key statistics

Satellite THORAD AGENA D DEB at a glance.

Uptime

20284

Days in orbit

Revolutions

≈ 13.7

Per day

Orbit

SSO

Sun Synchronous Orbit

Inclination

100.1

Latest

Satellite identification and parameters

Extended collection of information and parameters for THORAD AGENA D DEB.

Object identification

Identified? True

Debris? True

Object name: THORAD AGENA D DEB

International designator: 1970-025QP

Object number (NORAD): 22533

Object ID (CCSDS): 22533

Country: UNITED STATES OF AMERICA (US)

Current information (Y/N): Y

RCS size: SMALL

Orbital parameters

Period: 104.991 minutes

Inclination: 100.0928 deg

SMA: 7372.163 km

Apoapsis: 997.034 km

Periapsis: 991.023 km

RAAN: 98.7401 deg

Eccentricy: 0.00040767

Argument of periapsis: 137.396 deg

Mean anomaly: 14.2475 deg

Mean motion: 13.71545839 rev/day

Mean motion (dot): 0.00002059 rev/day2

B* drag term: 0.0023386909 1/REarth

Two-line elements (TLE)

Creation date: Oct. 19, 2025, 2:20 a.m.

Reference frame: TEME

Reference center: EARTH

Epoch: Oct. 18, 2025, 11:19 p.m. UTC

TLE line 0: 0 THORAD AGENA D DEB

TLE line 1: 1 22533U 70025QP 25291.97174439 .00002059 00000-0 23387-2 0 9993

TLE line 2: 2 22533 100.0928 98.7401 0004077 137.3960 14.2475 13.71545839620235

Live tracking on map

Real-time ground track for satellite THORAD AGENA D DEB.

In-orbit conjunctions

A list of the most updated potential collisions computed for object THORAD AGENA D DEB.

Target Orbit TCA Probability of collision Miss distance Type
COSMOS 2251 DEB LEO 2025-02-09 15:24:35 0.0004168636 64.0 (m) DEBRIS
COSMOS 1417 LEO 2024-11-14 12:57:33 0.0003375204 125.0 (m) PAYLOAD
COSMOS 1011 LEO 2024-09-03 06:55:47 0.0003439878 562.0 (m) PAYLOAD

Associated space launch

Meteorological research and development satellite

THORAD AGENA D DEB was lifted into orbit during the mission ‘Thorad SLV-2G Agena D | Nimbus 4’, on board a Thorad SLV-2G Agena D space rocket.

The launch took place on April 8, 1970, 8:17 a.m. from Space Launch Complex 2E.

For more information about the launch, click the button.

Launch to space Thorad SLV-2G Agena D | Nimbus 4
Thorad SLV-2G Agena D | Nimbus 4

Agency: N/A

Status: Launch Successful

Launch date: April 8, 1970, 8:17 a.m. UTC

Rocket: Thorad SLV-2G Agena D

Launch pad: Space Launch Complex 2E

Location: Vandenberg SFB, CA, USA

...

Latest news about this satellite

There are no fresh news available about this satellite. Check back as we update our databases every day.


Newsletter sign-up

Weekly statistics, charts and insights to help you stay on top of the space industry.